Manhattan, KS

10:50 AM CDT on July 21, 2017 (GMT -0500)
Manhattan Regional

Weather History for KMHK - January, 2012

Change the Weather History Date:

Wednesday, January 11, 2012

  Actual Average Record
Temperature  
Mean Temperature 33 °F 28 °F  
Max Temperature 43 °F 40 °F 62 °F (2006)
Min Temperature 23 °F 16 °F -2 °F (1997)
Degree Days  
Heating Degree Days 32 37  
Month to date heating degree days 311 407  
Since 1 July heating degree days 2263 2548  
Cooling Degree Days 0 0  
Month to date cooling degree days 0 0  
Year to date cooling degree days 0 0  
Moisture  
Dew Point 22 °F    
Average Humidity 77    
Maximum Humidity 96    
Minimum Humidity 57    
Precipitation  
Precipitation T in 0.02 in 0.04 in (2006)
Month to date precipitation T 0.12  
Year to date precipitation T 0.12  
Sea Level Pressure  
Sea Level Pressure 29.88 in    
Wind  
Wind Speed 9 mph (NNW)    
Max Wind Speed 23 mph    
Max Gust Speed 39 mph    
Visibility 8 miles    
Events Fog , Snow    
T = Trace of Precipitation, MM = Missing Value Source: NWS Daily Summary

Daily Weather History Graph

Daily Weather History Graph

Search for Another Location

Airport or City:

Trip Planner

Search our weather history database for the weather conditions in past years. The results will help you decide how hot, cold, wet, or windy it might be!

Date:

Astronomy

Jan. 11, 2012 Rise Set
Actual Time 7:45 AM CST 5:23 PM CST
Civil Twilight 7:16 AM CST 5:53 PM CST
Nautical Twilight 6:42 AM CST 6:26 PM CST
Astronomical Twilight 6:10 AM CST 6:58 PM CST
Moon 8:21 PM CST (1/11) 8:59 AM CST (1/11)
Length of Visible Light 10h 37m
Length of Day
9h 37m
Waning Gibbous, 93% of the Moon is Illuminated
Jan 11
Waning Gibbous
Jan 16
Last Quarter
Jan 23
New
Jan 30
First Quarter
Feb 7
Full

Hourly Weather History & Observations

Time (CST) Temp. Windchill Dew Point Humidity Pressure Visibility Wind Dir Wind Speed Gust Speed Precip Events Conditions
12:52 AM 26.1 °F - 23.0 °F 88% 29.74 in 10.0 mi Calm Calm - N/A   Clear
1:52 AM 25.0 °F - 21.9 °F 88% 29.73 in 10.0 mi Calm Calm - N/A   Clear
2:52 AM 25.0 °F - 21.9 °F 88% 29.70 in 10.0 mi Calm Calm - N/A   Clear
3:52 AM 24.1 °F - 21.9 °F 91% 29.68 in 10.0 mi Calm Calm - N/A   Clear
4:52 AM 23.0 °F - 21.9 °F 96% 29.66 in 10.0 mi Calm Calm - N/A   Clear
5:52 AM 24.1 °F - 21.9 °F 91% 29.67 in 10.0 mi Calm Calm - N/A   Clear
6:52 AM 23.0 °F - 21.0 °F 92% 29.69 in 10.0 mi Calm Calm - N/A   Clear
7:52 AM 28.0 °F 24.2 °F 24.1 °F 85% 29.71 in 10.0 mi West 3.5 mph - N/A   Clear
8:52 AM 37.9 °F 33.5 °F 30.0 °F 73% 29.74 in 10.0 mi Variable 5.8 mph - N/A   Clear
9:52 AM 42.1 °F 37.7 °F 33.1 °F 70% 29.77 in 10.0 mi North 6.9 mph 26.5 mph N/A   Mostly Cloudy
10:52 AM 41.0 °F 33.5 °F 32.0 °F 70% 29.80 in 10.0 mi North 13.8 mph 26.5 mph N/A   Overcast
11:52 AM 39.9 °F 32.9 °F 30.9 °F 70% 29.81 in 10.0 mi North 11.5 mph 28.8 mph N/A   Overcast
12:52 PM 39.9 °F 32.9 °F 30.0 °F 68% 29.83 in 10.0 mi North 11.5 mph 27.6 mph N/A   Overcast
1:52 PM 39.9 °F 31.1 °F 28.9 °F 65% 29.85 in 10.0 mi North 17.3 mph 28.8 mph N/A   Overcast
2:52 PM 37.0 °F 27.4 °F 26.1 °F 65% 29.89 in 10.0 mi North 17.3 mph 31.1 mph N/A   Overcast
3:52 PM 33.1 °F 22.6 °F 23.0 °F 66% 29.95 in 10.0 mi North 16.1 mph 31.1 mph N/A   Overcast
4:15 PM 30.2 °F 20.2 °F 24.8 °F 80% 29.94 in 2.5 mi North 12.7 mph 32.2 mph 0.00 in Snow Light Snow
4:24 PM 28.4 °F 18.5 °F 24.8 °F 86% 29.94 in 1.2 mi NNW 11.5 mph 25.3 mph 0.00 in Snow Light Snow
4:35 PM 28.4 °F 17.5 °F 24.8 °F 86% 29.95 in 0.8 mi North 13.8 mph 31.1 mph N/A Snow Light Snow
4:42 PM 28.4 °F 16.2 °F 24.8 °F 86% 29.95 in 0.5 mi NNW 17.3 mph 28.8 mph 0.00 in Fog , Snow Light Snow
4:52 PM 27.0 °F 16.1 °F 23.0 °F 85% 30.01 in 0.8 mi North 12.7 mph 32.2 mph 0.00 in Snow Light Snow
4:59 PM 26.6 °F 15.7 °F 23.0 °F 86% 29.97 in 1.2 mi North 12.7 mph 26.5 mph 0.00 in Snow Light Snow
5:35 PM 26.6 °F 15.2 °F 21.2 °F 80% 29.98 in 3.0 mi North 13.8 mph 24.2 mph 0.00 in Snow Light Snow
5:52 PM 28.0 °F 16.5 °F 18.0 °F 66% 30.02 in 10.0 mi North 15.0 mph 24.2 mph 0.00 in   Overcast
6:52 PM 28.0 °F 14.9 °F 16.0 °F 61% 30.06 in 10.0 mi North 19.6 mph 39.1 mph N/A   Overcast
7:52 PM 27.0 °F 15.6 °F 19.0 °F 72% 30.06 in 10.0 mi NNW 13.8 mph 21.9 mph 0.00 in   Overcast
8:27 PM 26.6 °F 18.2 °F 19.4 °F 74% 30.04 in 10.0 mi NNW 8.1 mph 18.4 mph 0.00 in   Overcast
8:38 PM 26.6 °F 16.8 °F 17.6 °F 69% 30.04 in 10.0 mi NNW 10.4 mph 23.0 mph 0.00 in   Overcast
8:52 PM 27.0 °F 15.6 °F 14.0 °F 58% 30.07 in 10.0 mi NNW 13.8 mph 25.3 mph 0.00 in   Overcast
9:06 PM 26.6 °F 13.8 °F 12.2 °F 55% 30.01 in 10.0 mi North 17.3 mph 26.5 mph N/A   Overcast
9:52 PM 25.0 °F 14.8 °F 12.9 °F 60% 30.02 in 10.0 mi NNW 10.4 mph 24.2 mph N/A   Partly Cloudy
10:52 PM 25.0 °F 17.1 °F 14.0 °F 63% - 10.0 mi Variable 6.9 mph - N/A   Overcast
11:52 PM 24.1 °F 12.5 °F 10.9 °F 57% - 10.0 mi NNW 12.7 mph 23.0 mph N/A   Overcast